Weather in Stantsiya Mochishche

Russia / Novosibirsk Oblast     55°09′30″N   83°07′05″E
temp.,
°C
wind,
m/s
gust,
m/s
humid.,
%
clouds,
%
prec.,
mm/h
press.,
hPa
HPBL,
m
27 february, sat
sat2701:00−25sw51196100 0.1 1034632
04:00−25sw51096100 0.2 1035521
07:00−25sw4997100 0.4 1036455
10:00−25sw5895100 0.1 1036489
13:00−23sw4792100 0.2 1036606
16:00−21sw4791100 0.1 1036648
19:00−25sw3496100 0.1 103764
22:00−28sw339881 0.0 103850
28 february, sun
sun2801:00−30ssw339981 0.0 103950
04:00−31ssw349846 0.0 103862
07:00−31s349743 0.0 103965
10:00−27s489558 0.0 1038191
13:00−20sse469265 0.0 1035354
16:00−17sse4789100 0.0 1032445
19:00−17se3393100 0.0 102966
22:00−15se3895100 0.3 1026257
1 march, mon
mon101:00−13se4895100 0.4 1022301
04:00−11se41095100 0.4 1019395
07:00−9se41095100 1.6 1014488
10:00−6se51095100 1.6 1011546
13:00−3ese5897100 4.3 1009423
16:000sw71399100 4.8 1007896
19:000sw51098100 7.0 1006527
22:00−4nw2698100 4.2 1006320
2 march, tue
tue201:00−10nne3497100 5.3 100894
04:00−12ne129699 0.3 101141
07:00−12nnw019699 0.9 101443
10:00−14nw239696 0.3 1016177
13:00−11wsw359098 0.4 1018574
16:00−11wsw3590100 0.1 1018575
19:00−15sw2396100 0.2 101832
22:00−18s229793 0.0 101820
3 march, wed
wed301:00−17e119597 0.0 101720
04:00−16ene129584 0.0 101523
07:00−16ne229788 0.2 101540
10:00−15ne239599 0.1 1015163
13:00−11ne129098 0.4 1016368
16:00−10n1191100 0.4 1017333
19:00−12nw2296100 0.8 102045
22:00−15nne129799 0.3 102220